Mason City Municipal Airport
Saturday 10:53 PM
Temperature30° (45°/20°)
Dew Point25°
Relative Humidity81
%
Visibility10
mi
Pressure1021.3
mb
Wind Direction
Wind SpeedCalm
Precipitation Today0.00"

Last 30 Observations

Time PresWx Temp DP Feels RH% Vsby Pressure Ceiling Direction Speed 1h Precip
10:53 PM 30° 25° 81
%
10
mi
1021.3
mb
Calm 0.00"
9:53 PM 31° 26° 26°82
%
10
mi
1021.3
mb
NE
50°
5
mph
0.00"
8:53 PM 34° 28° 30°79
%
10
mi
1021.3
mb
NE
40°
5
mph
0.00"
7:53 PM 38° 29° 36°70
%
10
mi
1021.3
mb
NNE
30°
3
mph
0.00"
6:53 PM 43° 25° 40°49
%
10
mi
1021.0
mb
NE
40°
5
mph
0.00"
5:53 PM 44° 26° 39°49
%
10
mi
1021.0
mb
NE
40°
9
mph
0.00"
4:53 PM 45° 27° 41°49
%
10
mi
1021.3
mb
N
10°
7
mph
0.00"
3:53 PM 43° 29° 38°57
%
10
mi
1021.7
mb
NE
50°
8
mph
0.00"
2:53 PM 40° 28° 34°62
%
10
mi
1022.7
mb
NE
40°
8
mph
0.00"
1:53 PM 37° 26° 30°64
%
10
mi
1023.7
mb
NE
50°
9
mph
0.00"
12:53 PM 35° 25° 28°66
%
10
mi
1024.4
mb
NNE
20°
9
mph
0.00"
11:53 AM 30° 24° 25°78
%
10
mi
1025.1
mb
Variable 5
mph
0.00"
10:53 AM 27° 21° 19°78
%
10
mi
1025.1
mb
NNE
20°
8
mph
0.00"
9:53 AM 25° 20° 14°81
%
10
mi
1025.1
mb
N
360°
11
mph
0.00"
9:28 AM 24° 19° 13°81
%
10
mi
1025.4
mb
N
10°
11
mph
0.00"
8:53 AM 23° 20° 12°88
%
10
mi
1025.1
mb
600
ft
NNE
30°
11
mph
0.00"
7:53 AM 21° 18° 88
%
10
mi
1025.1
mb
700
ft
NNW
340°
11
mph
0.00"
6:53 AM 21° 18° 88
%
10
mi
1025.1
mb
800
ft
NNW
330°
11
mph
0.00"
5:53 AM 22° 18° 10°84
%
10
mi
1024.7
mb
900
ft
NNW
340°
13
mph
0.00"
4:53 AM 22° 19° 88
%
10
mi
1024.4
mb
1,000
ft
NNW
330°
16
mph
0.00"
3:53 AM 24° 21° 11°88
%
10
mi
1024.1
mb
1,000
ft
NNW
330°
15
mph
0.00"
2:53 AM 25° 22° 14°88
%
10
mi
1024.1
mb
1,000
ft
NNW
330°
13
mph
0.00"
1:53 AM 25° 21° 12°85
%
10
mi
1023.7
mb
1,200
ft
N
350°
16
mph
0.00"
12:53 AM 25° 21° 11°85
%
10
mi
1023.7
mb
1,100
ft
NNW
340°
18
mph
0.00"
11:53 PM 25° 21° 11°85
%
10
mi
1023.7
mb
1,100
ft
NNW
340°
20
mph
0.00"
10:53 PM 26° 22° 12°84
%
10
mi
1023.7
mb
NNW
340°
20
mph
0.00"
9:53 PM 26° 22° 13°84
%
10
mi
1023.7
mb
1,100
ft
NNW
340°
17
mph
0.00"
8:53 PM 26° 22° 12°84
%
10
mi
1023.0
mb
1,200
ft
NNW
340°
21
mph
0.00"
7:53 PM 27° 23° 13°85
%
10
mi
1022.4
mb
1,300
ft
NNW
330°
20
mph
0.00"
6:53 PM 27° 23° 13°85
%
10
mi
1022.0
mb
1,300
ft
NW
320°
20
mph
0.00"